Regional Weather Roundup
Issued by NWS Newport/Morehead, NC

Current Version | Previous Version | Graphics & Text | Print | Product List | Glossary Off
Versions: 1 2 3 4 5 6 7 8 9 10 11 12 13 14 15 16 17 18 19 20 21 22 23 24 25 26 27 28 29 30 31 32 33 34 35 36 37 38 39 40 41 42 43 44 45 46 47 48 49 50

000
ASUS42 KMHX 311013
RWRMHX
WEATHER ROUNDUP FOR EASTERN NORTH CAROLINA
NATIONAL WEATHER SERVICE NEWPORT/MOREHEAD CITY NC
600 AM EDT MON AUG 31 2015

NOTE: "FAIR" INDICATES FEW OR NO CLOUDS BELOW 12,000 FEET
WITH NO SIGNIFICANT WEATHER AND/OR OBSTRUCTIONS TO VISIBILITY

NCZ015>017-031-032-045>047-102-103-311100-
NORTH COAST

CITY           SKY/WX    TMP DP  RH WIND       PRES   REMARKS
EDENTON        RAIN      73  69  88 W5        30.12R
ELIZABETH CITY CLOUDY    74  68  81 CALM      30.10F
KITTY HAWK     CLOUDY    75  70  84 CALM      30.09F
MANTEO         CLOUDY    73  70  89 CALM      30.11S

$$

NCZ045>047-081-094-103-104-311100-
CENTRAL COAST

CITY           SKY/WX    TMP DP  RH WIND       PRES   REMARKS
FRISCO         CLOUDY    74  71  91 CALM      30.12R
SWANQUARTER    NOT AVBL

$$

NCZ095-097-098-100-101-311100-
SOUTHERN COAST

CITY           SKY/WX    TMP DP  RH WIND       PRES   REMARKS
BEAUFORT       CLOUDY    75  72  90 E5        30.10S
CEDAR ISLAND   NOT AVBL
JACKSONVILLE   CLOUDY    76  70  82 E6        30.08S
PINEY ISLAND   CLOUDY   N/A N/A N/A SE3       30.11S
WILMINGTON     CLOUDY    77  74  90 E5        30.07S


$$

NCZ011>013-027>030-043-044-078>080-089-090>093-098-311100-
COASTAL PLAIN

CITY           SKY/WX    TMP DP  RH WIND       PRES   REMARKS
AHOSKIE        CLOUDY    69  66  89 CALM      30.12R
CLINTON        CLOUDY    70  69  96 E3        30.08S
ELIZABETHTOWN  CLOUDY    70  70 100 CALM      30.06S FOG
GOLDSBORO      CLOUDY    71  69  95 NE7       30.08F
GREENVILLE     CLOUDY    70  70 100 CALM      30.12F
HAVELOCK       CLOUDY    73  70  90 E5        30.11S
KENANSVILLE      N/A     70  69  95 CALM      30.09F FOG
KINSTON        LGT RAIN  71  69  95 NE3       30.10F
NEW BERN       CLOUDY    73  70  90 CALM      30.11S
RICHLANDS      CLOUDY    72  64  78 E5        30.09S
ROCKY MOUNT    CLOUDY    72  66  81 E5        30.11S
WASHINGTON     CLOUDY    71  68  91 NE3       30.11S
WHITEVILLE     RAIN      74  72  93 SE6       30.06R

$$

AMZ130-135-150-152-154-156-158-170-250-252-270-ANZ085-086-088-633-658-670-311100-
MARINE OBSERVATIONS

STATION/POSITION TIME  TEMP    WIND        PRES    WAVE   SWELL
                       AIR SEA DIR/SP/G            HT/PER HT/PER
                 (UTC) (F)     (DEG/KT/KT) (MB)    (FT/S) (FT/S)
CHESAPEAKE LIGHT 1000   77     220/ 11/ 11 1020.2
64 E VA BEACH    0950   77 78  230/  6/  8 1019.2    3/10   3/10
DUCK             NOT AVBL
2 E DUCK         0911      79                N/A     2/10   2/11
OREGON INLET     NOT AVBL
13E OREGON INLT  1000      78                N/A     3/ 9   2/11
HATTERAS CG      NOT AVBL
DIAMOND BUOY     0950   80 83   CALM  /  2 1020.0    3/10   3/10
CAPE LOOKOUT     1000   80     100/  9/  9 1019.1
BEAUFORT LAB     NOT AVBL
30 SE NEW RVR IN 0908   80 81   90/ 10/ 12 1019.1
30 SE NEW RVR IN 0925      81                N/A     3/ 9   2/11
27 SE WRIGHTSVLE 0900   77 81  140/  4/  6   N/A
5 SE WRIGHTSVLE  0908   81 82  150/ 10/ 14 1018.2
225 S CAPE HAT   0950   83 84  160/  8/ 10 1019.6    4/ 8   3/ 8
41 SE CHARLESTON 0950   81 84  140/ 21/ 25 1015.8    6/10   3/10

$$


USA.gov is the U.S. government's official web portal to all federal, state and local government web resources and services.